Wind_Speed
51 50 50 49 49 49 49 49 48 48 47 47 47 47 47 48 48 49 49 49 50 50 51 51 51 50 50 50 50 50 49 49 48 47 47 46 46 45 45 44 44 44
53 52 52 52 52 52 52 52 52 52 51 51 50 50 50 50 51 51 51 51 52 52 53 53 54 54 54 54 54 53 53 52 51 50 50 49 48 48 47 46 46 46
56 56 55 55 54 54 55 54 54 54 54 54 54 54 54 53 53 53 54 54 54 54 55 56 56 57 57 57 57 56 56 55 54 53 52 52 51 50 49 49 48 48
59 58 57 56 55 55 54 54 54 55 55 55 56 56 56 56 56 56 56 56 56 57 57 58 59 59 59 59 59 59 58 57 56 55 54 53 52 51 50 50 49 48
58 57 56 55 54 54 54 54 55 55 56 56 57 58 58 58 58 58 58 58 59 59 60 60 60 61 61 61 62 61 61 60 58 56 56 54 52 51 51 51 50 48
55 54 54 54 54 55 55 56 57 57 58 58 59 59 60 60 60 60 60 60 60 60 61 61 62 62 62 62 63 62 62 61 60 58 57 56 54 53 53 53 52 51
54 55 56 56 57 58 59 59 59 60 60 60 60 60 60 61 61 61 61 61 61 61 61 61 62 62 62 62 63 63 62 62 60 60 59 58 57 56 56 56 55 55
57 58 59 59 60 61 61 61 61 61 61 61 60 60 61 61 62 62 62 62 62 61 61 61 61 61 62 62 62 62 61 61 60 59 59 58 58 58 58 58 59 59
60 61 61 61 61 61 61 61 61 61 62 61 61 61 60 61 61 61 61 61 62 62 61 62 61 62 62 62 62 61 61 60 60 59 59 59 58 58 58 59 60 60
62 63 63 62 61 61 61 61 61 61 61 61 61 60 59 59 59 59 60 60 61 61 61 61 61 61 61 61 61 61 61 61 61 60 60 59 59 58 58 59 60 60
64 63 63 62 61 61 61 61 61 60 60 59 59 59 58 57 57 57 58 58 58 59 59 59 59 59 59 59 59 60 59 60 60 59 59 59 58 58 58 59 59 59
63 64 64 63 63 62 62 61 61 60 59 58 57 57 56 55 54 54 55 55 55 55 56 56 56 56 57 57 57 57 57 57 57 56 56 56 56 56 56 56 57 57
61 62 64 65 65 65 63 62 61 60 60 59 58 57 56 55 55 54 54 54 54 53 53 54 54 54 55 55 55 56 56 56 55 54 54 53 53 53 53 54 54 54
62 62 63 64 65 66 66 65 64 62 61 60 59 59 58 58 57 56 56 55 54 54 54 54 54 54 54 55 55 56 56 56 56 55 54 54 54 53 53 54 54 54
67 67 67 66 66 66 67 67 67 66 65 63 62 61 60 60 59 59 58 58 57 57 57 58 58 58 58 58 58 57 57 57 57 57 57 56 56 55 55 55 56 56
70 71 71 70 69 69 69 69 69 69 67 66 65 64 63 62 61 61 61 60 60 60 61 61 62 62 63 63 63 62 61 61 60 59 60 59 58 58 58 59 60 60
70 71 71 71 72 72 72 72 73 72 71 69 68 67 66 65 65 65 65 65 64 63 64 65 66 67 67 68 68 67 67 66 64 63 63 62 61 61 61 62 64 64
67 68 70 71 72 73 74 75 76 76 75 73 72 71 70 70 70 70 70 71 71 70 70 70 70 71 71 72 72 73 73 72 70 69 68 67 66 65 65 66 67 68
68 69 70 71 72 73 75 76 77 78 78 77 76 75 74 74 74 75 75 76 76 76 76 76 76 76 76 77 77 78 79 79 77 76 74 73 71 71 71 71 71 71
71 71 72 73 74 75 76 77 78 79 79 80 80 80 80 80 80 81 81 82 81 81 81 81 82 82 82 83 83 83 83 83 82 82 81 79 78 77 76 76 75 75
71 72 73 73 74 75 76 77 78 79 80 81 81 82 83 83 84 84 85 85 85 85 84 84 85 86 86 87 86 86 85 85 84 84 84 84 83 83 82 81 80 80
66 67 69 70 72 73 74 75 76 78 79 81 82 83 84 84 84 84 84 85 85 86 86 87 87 88 88 88 88 88 87 87 86 85 85 85 85 85 85 84 84 84
62 63 64 65 67 68 70 71 73 74 76 78 80 81 83 85 85 86 86 86 87 87 88 88 89 89 89 88 88 87 87 87 87 87 86 85 85 85 85 85 85 86
62 63 64 64 65 66 66 67 69 70 72 75 76 78 80 82 83 85 86 88 89 89 89 89 89 90 90 89 89 88 88 87 87 88 88 87 87 86 86 86 86 86
65 66 67 67 67 67 68 68 68 68 69 71 73 75 77 79 80 81 83 85 87 88 89 89 89 89 90 90 89 89 89 89 89 89 88 89 89 89 89 88 88 87
69 69 70 69 69 69 69 69 70 70 70 70 71 72 74 76 78 80 80 82 84 85 86 87 87 88 88 89 88 88 88 87 87 88 88 88 89 89 89 89 89 89
Wind_Direction
263 263 263 264 265 266 267 267 268 268 267 267 267 267 267 267 267 268 269 271 272 273 274 274 275 276 276 277 277 277 278 278 280 281 282 282 283 283 283 284 283 284
264 264 264 264 265 265 266 267 268 268 268 268 267 267 267 267 267 268 268 269 270 271 272 272 273 274 275 276 277 277 277 277 278 280 280 280 281 281 282 282 282 283
264 265 265 266 266 266 267 267 267 268 268 268 268 267 267 267 267 267 268 268 268 269 270 271 272 273 274 275 276 276 277 277 278 279 279 280 281 282 283 284 284 284
265 265 266 267 267 267 267 267 268 268 268 268 268 268 268 268 267 267 267 267 268 268 269 270 271 272 273 274 275 276 276 277 277 278 279 279 281 282 283 283 284 284
265 265 266 266 267 267 268 268 269 269 269 269 269 269 269 269 268 267 267 267 267 267 268 269 270 271 272 273 274 274 275 276 276 277 277 278 279 280 280 281 281 282
264 264 265 266 267 268 268 269 269 269 269 269 269 270 270 269 269 269 268 268 267 267 268 269 270 271 272 272 273 273 274 274 275 275 275 276 276 277 278 278 278 278
265 266 267 268 269 269 269 269 269 269 270 270 270 271 271 271 271 271 270 270 269 269 269 269 270 271 271 272 272 272 273 274 274 274 275 275 275 276 276 276 276 276
270 271 272 273 273 272 271 270 270 270 270 271 271 271 271 272 272 272 272 272 271 271 270 270 270 271 271 272 272 273 273 274 274 274 274 275 275 275 275 275 276 276
273 275 276 276 275 274 273 273 272 272 272 272 272 272 271 271 271 272 272 272 272 272 272 272 271 272 272 273 273 274 275 275 276 276 276 276 276 276 275 275 276 276
275 276 276 276 275 275 274 274 274 274 274 274 274 273 273 272 272 271 272 272 272 272 272 273 273 273 273 274 274 275 275 276 277 277 277 277 277 277 276 276 276 277
277 277 277 277 276 276 276 275 275 275 275 274 274 274 274 274 274 273 273 273 273 273 273 274 274 274 274 274 275 275 275 275 276 277 277 277 277 277 277 277 278 278
278 278 278 277 277 277 276 276 275 275 274 273 273 273 273 273 273 273 273 274 274 274 274 275 275 275 275 275 275 275 275 275 275 275 276 276 276 277 277 277 278 279
279 279 279 279 278 278 277 276 276 275 274 273 272 271 271 271 271 272 272 273 273 274 274 274 275 275 275 275 275 274 274 273 273 273 273 274 274 275 275 276 277 278
278 279 279 279 279 278 278 277 276 275 274 273 272 271 270 270 270 270 271 272 272 272 273 274 274 275 275 275 274 274 273 272 272 272 272 273 273 273 274 275 276 277
276 277 277 277 277 276 276 276 275 274 274 273 272 272 271 271 270 270 270 270 272 272 273 274 274 275 275 275 275 274 273 272 272 271 272 272 272 273 274 275 276 277
270 271 273 273 274 274 274 274 273 273 273 272 272 272 272 272 272 272 271 271 271 272 274 275 275 276 276 276 276 275 275 274 273 273 273 273 273 273 274 276 277 278
267 267 267 268 268 268 269 270 271 272 272 272 272 272 272 273 273 273 273 273 273 273 273 274 274 275 275 276 276 276 276 275 275 275 275 274 274 274 275 276 278 278
268 267 267 266 265 265 265 266 268 269 270 270 271 272 272 273 273 274 274 275 275 275 275 274 274 274 274 275 276 276 276 276 275 275 275 275 275 274 274 275 276 277
271 270 270 269 269 268 267 266 267 267 267 268 270 271 272 273 273 274 274 275 276 276 276 276 275 275 274 275 276 277 277 277 277 276 276 275 275 274 274 274 275 275
274 273 273 273 272 272 271 271 270 269 268 268 268 268 269 270 271 272 273 273 274 274 274 275 275 275 275 275 276 276 277 277 277 277 277 277 276 275 275 275 275 275
276 275 275 274 274 273 273 273 273 272 272 271 271 270 269 269 269 269 270 271 272 272 273 273 273 274 275 275 276 276 276 276 276 276 277 277 277 276 276 276 275 275
279 278 277 276 275 275 274 273 272 272 272 272 272 272 271 271 270 269 269 269 270 271 272 273 273 274 274 274 275 275 275 275 275 275 276 276 276 276 276 277 276 276
284 283 281 280 278 277 276 275 274 272 271 271 270 270 271 271 271 270 270 270 270 270 271 272 273 274 274 275 275 275 275 275 275 275 275 275 275 275 275 276 276 277
285 285 285 284 282 281 279 277 276 274 273 272 271 270 270 270 270 271 271 271 271 271 271 271 272 272 273 274 274 275 275 275 275 275 275 275 275 275 275 276 276 276
285 284 284 284 283 283 282 280 278 277 275 273 272 271 270 270 270 270 270 270 270 271 271 271 271 271 271 271 272 273 273 274 274 274 275 275 275 276 276 276 276 276
286 287 286 285 284 283 282 281 280 278 276 275 273 272 271 270 270 270 270 270 270 270 270 270 270 270 270 270 270 271 271 271 272 272 272 273 273 274 274 275 275 276
Height
5795 5795 5795 5795 5795 5795 5794 5794 5794 5794 5794 5794 5793 5793 5792 5791 5790 5789 5789 5788 5786 5785 5784 5783 5782 5781 5780 5779 5778 5777 5776 5775 5775 5773 5772 5771 5770 5768 5767 5766 5765 5763
5789 5789 5789 5789 5789 5788 5788 5788 5787 5787 5787 5787 5786 5786 5786 5785 5784 5783 5783 5782 5781 5780 5778 5777 5776 5774 5773 5772 5771 5770 5770 5769 5768 5767 5765 5764 5763 5762 5762 5760 5759 5757
5782 5782 5782 5782 5782 5782 5781 5781 5781 5780 5780 5779 5779 5779 5778 5778 5778 5777 5776 5775 5775 5774 5772 5771 5770 5768 5767 5766 5764 5764 5763 5762 5761 5760 5758 5758 5756 5756 5755 5753 5752 5751
5775 5775 5775 5775 5775 5775 5774 5774 5773 5772 5772 5772 5771 5771 5771 5771 5770 5770 5769 5769 5768 5767 5766 5765 5764 5762 5761 5759 5758 5757 5756 5755 5754 5753 5752 5751 5750 5749 5748 5747 5746 5744
5767 5767 5767 5767 5767 5767 5767 5766 5766 5765 5765 5764 5763 5763 5762 5762 5762 5761 5761 5761 5760 5760 5759 5758 5757 5755 5754 5752 5751 5751 5750 5749 5748 5746 5745 5745 5743 5742 5741 5740 5739 5738
5760 5759 5760 5760 5760 5759 5759 5758 5758 5757 5756 5756 5756 5755 5754 5754 5753 5753 5753 5752 5752 5752 5751 5750 5749 5748 5746 5745 5744 5743 5743 5742 5741 5739 5738 5738 5736 5735 5734 5732 5732 5731
5752 5752 5752 5752 5752 5752 5751 5751 5750 5749 5749 5749 5749 5748 5746 5746 5746 5745 5744 5744 5744 5743 5743 5742 5741 5740 5738 5737 5736 5736 5735 5734 5733 5732 5731 5731 5729 5728 5727 5725 5724 5723
5744 5744 5744 5745 5744 5744 5743 5743 5742 5742 5741 5741 5741 5740 5739 5739 5738 5737 5736 5736 5736 5736 5735 5734 5733 5732 5730 5729 5729 5728 5727 5726 5725 5724 5724 5723 5722 5721 5720 5717 5716 5716
5736 5736 5736 5736 5736 5735 5735 5734 5734 5733 5733 5733 5733 5732 5732 5731 5730 5730 5729 5728 5728 5728 5727 5726 5725 5724 5723 5722 5721 5721 5720 5719 5717 5716 5716 5715 5714 5713 5712 5709 5708 5708
5728 5728 5728 5728 5728 5727 5727 5726 5726 5725 5725 5725 5725 5724 5724 5723 5722 5722 5721 5720 5720 5720 5719 5718 5717 5716 5715 5714 5714 5713 5712 5711 5709 5708 5707 5707 5706 5705 5704 5701 5700 5700
5721 5721 5720 5720 5720 5720 5720 5719 5719 5718 5718 5717 5717 5717 5716 5715 5714 5714 5713 5713 5713 5712 5711 5710 5709 5708 5707 5707 5706 5705 5704 5703 5702 5701 5700 5699 5698 5697 5696 5694 5693 5693
5714 5714 5713 5713 5713 5712 5712 5712 5711 5711 5711 5710 5709 5709 5709 5708 5707 5706 5705 5705 5705 5704 5703 5702 5701 5700 5700 5699 5698 5696 5695 5695 5694 5693 5692 5691 5691 5690 5688 5687 5686 5685
5708 5707 5707 5706 5705 5705 5705 5704 5704 5704 5703 5703 5702 5702 5702 5701 5700 5699 5698 5698 5697 5697 5696 5694 5693 5693 5692 5691 5689 5688 5687 5686 5686 5685 5685 5684 5683 5683 5681 5680 5679 5678
5703 5701 5700 5700 5698 5698 5697 5697 5696 5696 5695 5695 5694 5694 5694 5693 5693 5692 5691 5691 5690 5689 5688 5687 5686 5685 5684 5682 5681 5680 5678 5678 5678 5677 5677 5677 5676 5675 5674 5673 5672 5671
5695 5694 5694 5693 5691 5691 5690 5689 5688 5688 5687 5687 5686 5686 5686 5685 5685 5685 5684 5683 5682 5681 5680 5679 5678 5677 5675 5673 5672 5671 5670 5670 5670 5669 5669 5669 5668 5668 5667 5666 5665 5664
5687 5686 5685 5685 5684 5683 5682 5681 5680 5679 5679 5678 5677 5677 5677 5676 5676 5676 5675 5675 5674 5674 5672 5671 5669 5668 5666 5664 5663 5662 5661 5661 5661 5661 5660 5660 5661 5661 5660 5659 5657 5656
5678 5678 5677 5676 5676 5675 5674 5673 5672 5671 5670 5670 5669 5669 5668 5667 5667 5666 5665 5665 5665 5665 5664 5663 5661 5659 5657 5655 5653 5652 5652 5652 5652 5653 5652 5652 5652 5652 5652 5651 5649 5648
5669 5668 5667 5667 5666 5666 5665 5665 5664 5662 5661 5661 5660 5659 5659 5658 5657 5656 5656 5654 5654 5655 5654 5653 5652 5650 5648 5646 5644 5643 5642 5642 5643 5644 5644 5644 5645 5644 5644 5643 5641 5640
5660 5659 5658 5657 5657 5656 5656 5655 5655 5654 5652 5652 5651 5650 5649 5648 5647 5646 5646 5644 5644 5644 5643 5642 5641 5639 5638 5637 5635 5634 5632 5631 5633 5634 5634 5635 5635 5635 5634 5633 5632 5631
5650 5649 5649 5648 5647 5646 5646 5645 5644 5644 5643 5642 5642 5640 5639 5638 5637 5636 5635 5633 5633 5633 5632 5631 5629 5627 5626 5625 5625 5625 5623 5622 5622 5622 5622 5623 5623 5623 5622 5622 5622 5620
5639 5638 5638 5637 5636 5636 5635 5634 5632 5632 5631 5631 5630 5629 5628 5628 5626 5625 5624 5622 5621 5620 5620 5620 5617 5614 5613 5613 5613 5613 5612 5612 5612 5612 5612 5612 5611 5610 5609 5609 5610 5608
5627 5627 5627 5626 5625 5624 5624 5623 5621 5621 5619 5619 5618 5617 5615 5615 5615 5614 5613 5612 5610 5608 5608 5608 5605 5603 5602 5601 5600 5600 5600 5600 5600 5600 5601 5601 5600 5599 5597 5596 5596 5595
5615 5616 5615 5615 5614 5614 5613 5611 5610 5610 5608 5607 5607 5606 5604 5603 5602 5602 5601 5600 5599 5597 5596 5596 5594 5591 5590 5589 5588 5588 5588 5587 5587 5587 5588 5589 5589 5588 5586 5586 5585 5583
5606 5605 5605 5604 5603 5603 5602 5601 5600 5599 5597 5596 5595 5595 5594 5592 5591 5591 5590 5588 5586 5585 5584 5584 5583 5581 5579 5578 5576 5576 5576 5576 5575 5575 5575 5575 5575 5576 5575 5574 5574 5572
5597 5596 5595 5594 5594 5593 5592 5591 5589 5588 5587 5585 5583 5583 5583 5581 5580 5580 5579 5577 5575 5573 5572 5571 5571 5570 5568 5567 5566 5564 5564 5564 5564 5563 5563 5562 5562 5562 5562 5562 5561 5560
5587 5585 5584 5584 5583 5583 5582 5581 5579 5578 5576 5575 5573 5572 5572 5571 5569 5568 5569 5567 5564 5562 5560 5559 5558 5557 5556 5555 5554 5553 5552 5552 5552 5552 5552 5551 5551 5551 5551 5550 5549 5548